| time (UTC) | temp F | wind direction | speed MPH | gust MPH | rain 1hr in | rain 24hr in | rain mn in | humidity % | barometer mb |
| 20260901014504 | 55 | 155 | 0.0 | 0.0 | 0.00 | 0.66 | 0.00 | 79 | 995.4 |
| 20260901013504 | 55 | 155 | 0.0 | 0.0 | 0.00 | 0.66 | 0.00 | 79 | 995.4 |
| 20260901013004 | 55 | 155 | 0.0 | 0.0 | 0.00 | 0.66 | 0.00 | 79 | 995.4 |
| 20260901012504 | 55 | 155 | 0.0 | 0.0 | 0.00 | 0.66 | 0.00 | 78 | 995.3 |
| 20260901012004 | 55 | 155 | 0.0 | 0.0 | 0.00 | 0.66 | 0.00 | 78 | 995.3 |
| 20260901010504 | 55 | 155 | 0.0 | 1.0 | 0.00 | 0.66 | 0.00 | 79 | 995.3 |
| 20260901010004 | 55 | 155 | 0.0 | 0.0 | 0.00 | 0.66 | 0.00 | 79 | 995.3 |
| 20260901005005 | 54 | 155 | 0.0 | 0.0 | 0.00 | 0.66 | 0.00 | 79 | 995.4 |
| 20260901004504 | 54 | 155 | 0.0 | 0.0 | 0.00 | 0.66 | 0.00 | 79 | 995.4 |
| 20260901004005 | 54 | 155 | 0.0 | 0.0 | 0.00 | 0.66 | 0.00 | 79 | 995.4 |
| 20260901003505 | 54 | 155 | 0.0 | 0.0 | 0.00 | 0.66 | 0.00 | 78 | 995.5 |
| 20260901003004 | 54 | 155 | 0.0 | 0.0 | 0.00 | 0.66 | 0.00 | 78 | 995.5 |
| 20260901002504 | 54 | 155 | 0.0 | 0.0 | 0.00 | 0.66 | 0.00 | 78 | 995.5 |
| 20260901002005 | 54 | 155 | 0.0 | 0.0 | 0.00 | 0.66 | 0.00 | 79 | 995.5 |
| 20260901001504 | 54 | 155 | 0.0 | 0.0 | 0.00 | 0.66 | 0.00 | 79 | 995.5 |
| 20260901001004 | 54 | 155 | 0.0 | 0.0 | 0.00 | 0.66 | 0.00 | 80 | 995.6 |
| 20260901000004 | 53 | 155 | 0.0 | 0.0 | 0.00 | 0.66 | 0.00 | 82 | 995.7 |
| 20260831235504 | 53 | 155 | 0.0 | 0.0 | 0.00 | 0.66 | 0.00 | 82 | 995.7 |
| 20260831235004 | 53 | 155 | 0.0 | 0.0 | 0.00 | 0.66 | 0.00 | 82 | 995.8 |
| 20260831234505 | 53 | 155 | 0.0 | 0.0 | 0.00 | 0.66 | 0.00 | 82 | 995.8 |
| 20260831234004 | 53 | 155 | 0.0 | 0.0 | 0.00 | 0.66 | 0.00 | 82 | 995.8 |
| 20260831233505 | 53 | 155 | 0.0 | 0.0 | 0.00 | 0.66 | 0.00 | 82 | 995.8 |
| 20260831233005 | 53 | 155 | 0.0 | 0.0 | 0.00 | 0.66 | 0.00 | 83 | 995.8 |
| 20260831232506 | 53 | 155 | 0.0 | 0.0 | 0.00 | 0.66 | 0.00 | 83 | 995.8 |
| 20260831232006 | 54 | 155 | 0.0 | 0.0 | 0.00 | 0.66 | 0.00 | 83 | 995.8 |
| 20260831231505 | 54 | 155 | 0.0 | 0.0 | 0.00 | 0.66 | 0.00 | 82 | 995.8 |
| 20260831230504 | 55 | 155 | 0.0 | 0.0 | 0.00 | 0.66 | 0.00 | 80 | 995.8 |
| 20260831230004 | 55 | 155 | 0.0 | 0.0 | 0.00 | 0.66 | 0.00 | 80 | 995.8 |
| 20260831224504 | 54 | 155 | 0.0 | 0.0 | 0.00 | 0.66 | 0.00 | 81 | 996.0 |
| 20260831224005 | 54 | 155 | 0.0 | 0.0 | 0.00 | 0.66 | 0.00 | 81 | 996.0 |
| 20260831223505 | 55 | 155 | 0.0 | 0.0 | 0.00 | 0.66 | 0.00 | 81 | 996.0 |
| 20260831223004 | 55 | 155 | 0.0 | 0.0 | 0.00 | 0.66 | 0.00 | 81 | 996.0 |
| 20260831222504 | 55 | 155 | 0.0 | 0.0 | 0.00 | 0.66 | 0.00 | 81 | 996.0 |
| 20260831222004 | 55 | 155 | 0.0 | 0.0 | 0.00 | 0.66 | 0.00 | 81 | 996.0 |
| 20260831221504 | 55 | 155 | 0.0 | 0.0 | 0.00 | 0.66 | 0.00 | 81 | 996.0 |
| 20260831220504 | 55 | 155 | 0.0 | 0.0 | 0.00 | 0.66 | 0.00 | 81 | 996.0 |
| 20260831220004 | 55 | 155 | 0.0 | 0.0 | 0.00 | 0.66 | 0.00 | 81 | 996.1 |
| 20260831215504 | 55 | 155 | 0.0 | 0.0 | 0.00 | 0.66 | 0.66 | 82 | 996.1 |
| 20260831215004 | 55 | 155 | 0.0 | 0.0 | 0.00 | 0.66 | 0.66 | 82 | 996.2 |
| 20260831214504 | 55 | 155 | 0.0 | 0.0 | 0.00 | 0.66 | 0.66 | 82 | 996.1 |
| 20260831214004 | 55 | 155 | 0.0 | 0.0 | 0.00 | 0.66 | 0.66 | 82 | 996.1 |
| 20260831213504 | 55 | 155 | 0.0 | 0.0 | 0.00 | 0.66 | 0.66 | 82 | 996.1 |
| 20260831212504 | 55 | 155 | 0.0 | 0.0 | 0.00 | 0.66 | 0.66 | 83 | 996.2 |
| 20260831212004 | 55 | 155 | 0.0 | 0.0 | 0.00 | 0.66 | 0.66 | 83 | 996.2 |
| 20260831211505 | 55 | 155 | 0.0 | 0.0 | 0.00 | 0.66 | 0.66 | 83 | 996.2 |
| 20260831211004 | 55 | 155 | 0.0 | 0.0 | 0.01 | 0.66 | 0.66 | 83 | 996.2 |
| 20260831210504 | 55 | 155 | 0.0 | 0.0 | 0.03 | 0.66 | 0.66 | 83 | 996.2 |
| 20260831210004 | 55 | 155 | 0.0 | 0.0 | 0.04 | 0.66 | 0.66 | 83 | 996.2 |
| 20260831205004 | 56 | 155 | 0.0 | 0.0 | 0.07 | 0.66 | 0.66 | 82 | 996.3 |
| 20260831204504 | 56 | 155 | 0.0 | 0.0 | 0.08 | 0.66 | 0.66 | 82 | 996.3 |
| 20260831204004 | 56 | 155 | 0.0 | 0.0 | 0.09 | 0.66 | 0.66 | 82 | 996.2 |
| 20260831203504 | 56 | 155 | 0.0 | 0.0 | 0.10 | 0.66 | 0.66 | 82 | 996.3 |
| 20260831203004 | 56 | 155 | 0.0 | 0.0 | 0.10 | 0.66 | 0.66 | 82 | 996.2 |
| 20260831202505 | 56 | 155 | 0.0 | 0.0 | 0.10 | 0.66 | 0.66 | 82 | 996.3 |
| 20260831202004 | 56 | 155 | 0.0 | 0.0 | 0.10 | 0.66 | 0.66 | 82 | 996.4 |
| 20260831201504 | 56 | 155 | 0.0 | 0.0 | 0.10 | 0.66 | 0.66 | 82 | 996.4 |
| 20260831201004 | 56 | 155 | 0.0 | 0.0 | 0.09 | 0.65 | 0.65 | 82 | 996.4 |
| 20260831200505 | 56 | 155 | 0.0 | 0.0 | 0.07 | 0.63 | 0.63 | 82 | 996.5 |
| 20260831200004 | 56 | 155 | 0.0 | 0.0 | 0.06 | 0.62 | 0.62 | 82 | 996.5 |
| 20260831195504 | 56 | 155 | 0.0 | 0.0 | 0.04 | 0.60 | 0.60 | 82 | 996.5 |
| 20260831195005 | 56 | 155 | 0.0 | 0.0 | 0.03 | 0.59 | 0.59 | 82 | 996.5 |
| 20260831194504 | 56 | 155 | 0.0 | 0.0 | 0.02 | 0.58 | 0.58 | 82 | 996.5 |
| 20260831194004 | 56 | 155 | 0.0 | 0.0 | 0.01 | 0.57 | 0.57 | 82 | 996.6 |
| 20260831193505 | 56 | 155 | 0.0 | 0.0 | 0.00 | 0.56 | 0.56 | 82 | 996.5 |
| 20260831193005 | 56 | 155 | 0.0 | 0.0 | 0.00 | 0.56 | 0.56 | 82 | 996.5 |
| 20260831192504 | 56 | 155 | 0.0 | 0.0 | 0.00 | 0.56 | 0.56 | 83 | 996.5 |
| 20260831192004 | 56 | 155 | 0.0 | 0.0 | 0.00 | 0.56 | 0.56 | 83 | 996.5 |
| 20260831191504 | 56 | 155 | 0.0 | 0.0 | 0.01 | 0.56 | 0.56 | 83 | 996.5 |
| 20260831191004 | 56 | 155 | 0.0 | 0.0 | 0.01 | 0.56 | 0.56 | 83 | 996.6 |
| 20260831190505 | 56 | 155 | 0.0 | 0.0 | 0.02 | 0.56 | 0.56 | 83 | 996.7 |
| 20260831185504 | 56 | 155 | 0.0 | 0.0 | 0.02 | 0.56 | 0.56 | 83 | 996.7 |
| 20260831185004 | 56 | 155 | 0.0 | 0.0 | 0.03 | 0.56 | 0.56 | 84 | 996.6 |
| 20260831184504 | 56 | 155 | 0.0 | 0.0 | 0.04 | 0.56 | 0.56 | 84 | 996.5 |
| 20260831184005 | 56 | 155 | 0.0 | 0.0 | 0.04 | 0.56 | 0.56 | 84 | 996.5 |
| 20260831183505 | 56 | 155 | 0.0 | 0.0 | 0.04 | 0.56 | 0.56 | 84 | 996.6 |
| 20260831183004 | 56 | 155 | 0.0 | 0.0 | 0.04 | 0.56 | 0.56 | 84 | 996.6 |
| 20260831182504 | 56 | 155 | 0.0 | 0.0 | 0.04 | 0.56 | 0.56 | 84 | 996.7 |
| 20260831182004 | 57 | 155 | 0.0 | 0.0 | 0.04 | 0.56 | 0.56 | 84 | 996.7 |
| 20260831181504 | 57 | 155 | 0.0 | 0.0 | 0.03 | 0.55 | 0.55 | 84 | 996.7 |
| 20260831181004 | 57 | 155 | 0.0 | 0.0 | 0.03 | 0.55 | 0.55 | 85 | 996.7 |
| 20260831180004 | 57 | 155 | 0.0 | 0.0 | 0.02 | 0.54 | 0.54 | 85 | 996.7 |
| 20260831175504 | 57 | 155 | 0.0 | 0.0 | 0.02 | 0.54 | 0.54 | 85 | 996.7 |
| 20260831175005 | 57 | 155 | 0.0 | 0.0 | 0.01 | 0.53 | 0.53 | 85 | 996.8 |
| 20260831174505 | 57 | 155 | 0.0 | 0.0 | 0.00 | 0.52 | 0.52 | 85 | 996.7 |
| 20260831174005 | 57 | 155 | 0.0 | 0.0 | 0.00 | 0.52 | 0.52 | 86 | 996.7 |
| 20260831173504 | 57 | 155 | 0.0 | 0.0 | 0.00 | 0.52 | 0.52 | 85 | 996.7 |
| 20260831173004 | 57 | 155 | 0.0 | 0.0 | 0.00 | 0.52 | 0.52 | 86 | 996.7 |
| 20260831172504 | 57 | 155 | 0.0 | 0.0 | 0.00 | 0.52 | 0.52 | 86 | 996.7 |
| 20260831172005 | 57 | 155 | 0.0 | 0.0 | 0.00 | 0.52 | 0.52 | 86 | 996.8 |
| 20260831171504 | 58 | 155 | 0.0 | 0.0 | 0.00 | 0.52 | 0.52 | 86 | 996.8 |
| 20260831171004 | 58 | 155 | 0.0 | 0.0 | 0.00 | 0.52 | 0.52 | 86 | 996.7 |
| 20260831170504 | 58 | 155 | 0.0 | 0.0 | 0.00 | 0.52 | 0.52 | 86 | 996.6 |
| 20260831170004 | 58 | 155 | 0.0 | 0.0 | 0.00 | 0.52 | 0.52 | 86 | 996.6 |
| 20260831165505 | 58 | 155 | 0.0 | 0.0 | 0.00 | 0.52 | 0.52 | 86 | 996.6 |
| 20260831165005 | 58 | 155 | 0.0 | 0.0 | 0.00 | 0.52 | 0.52 | 86 | 996.6 |
| 20260831164504 | 58 | 155 | 0.0 | 0.0 | 0.00 | 0.52 | 0.52 | 86 | 996.7 |
| 20260831164004 | 58 | 155 | 0.0 | 0.0 | 0.00 | 0.52 | 0.52 | 86 | 996.8 |
| 20260831163504 | 58 | 155 | 0.0 | 0.0 | 0.00 | 0.52 | 0.52 | 86 | 996.8 |
| 20260831163004 | 59 | 155 | 0.0 | 0.0 | 0.00 | 0.52 | 0.52 | 86 | 996.8 |
| 20260831162504 | 59 | 155 | 0.0 | 0.0 | 0.00 | 0.52 | 0.52 | 86 | 996.8 |
| 20260831162004 | 59 | 155 | 0.0 | 0.0 | 0.00 | 0.52 | 0.52 | 86 | 996.7 |
| 20260831161504 | 59 | 155 | 0.0 | 0.0 | 0.00 | 0.52 | 0.52 | 86 | 996.7 |
| 20260831155504 | 59 | 155 | 0.0 | 0.0 | 0.00 | 0.52 | 0.52 | 87 | 996.7 |
| 20260831155004 | 59 | 155 | 0.0 | 0.0 | 0.00 | 0.52 | 0.52 | 87 | 996.7 |
| 20260831154504 | 59 | 155 | 0.0 | 0.0 | 0.00 | 0.52 | 0.52 | 87 | 996.8 |
| 20260831154005 | 59 | 155 | 0.0 | 0.0 | 0.00 | 0.52 | 0.52 | 87 | 996.8 |
| 20260831153504 | 59 | 155 | 0.0 | 0.0 | 0.01 | 0.52 | 0.52 | 87 | 996.8 |
| 20260831152504 | 59 | 155 | 0.0 | 0.0 | 0.01 | 0.52 | 0.52 | 87 | 996.8 |
| 20260831152004 | 59 | 155 | 0.0 | 0.0 | 0.01 | 0.52 | 0.52 | 87 | 996.8 |
| 20260831151005 | 59 | 155 | 0.0 | 0.0 | 0.01 | 0.52 | 0.52 | 87 | 996.8 |
| 20260831150504 | 59 | 155 | 0.0 | 0.0 | 0.01 | 0.52 | 0.52 | 88 | 996.8 |
| 20260831145504 | 59 | 155 | 0.0 | 0.0 | 0.01 | 0.52 | 0.52 | 87 | 996.8 |
| 20260831145004 | 59 | 155 | 0.0 | 0.0 | 0.02 | 0.52 | 0.52 | 87 | 996.9 |
| 20260831144504 | 59 | 155 | 0.0 | 0.0 | 0.03 | 0.52 | 0.52 | 87 | 996.9 |
| 20260831144005 | 59 | 155 | 0.0 | 0.0 | 0.04 | 0.52 | 0.52 | 88 | 996.9 |
| 20260831143505 | 59 | 155 | 0.0 | 0.0 | 0.05 | 0.51 | 0.51 | 88 | 996.9 |
| 20260831143004 | 59 | 155 | 0.0 | 0.0 | 0.51 | 0.51 | 0.51 | 88 | 996.9 |
| 20260831142505 | 59 | 155 | 0.0 | 0.0 | 0.51 | 0.51 | 0.51 | 88 | 996.9 |
| 20260831142005 | 59 | 155 | 0.0 | 0.0 | 0.51 | 0.51 | 0.51 | 88 | 997.0 |
| 20260831141505 | 59 | 155 | 0.0 | 0.0 | 0.51 | 0.51 | 0.51 | 88 | 997.0 |
| 20260831141004 | 59 | 155 | 0.0 | 0.0 | 0.51 | 0.51 | 0.51 | 88 | 997.0 |
| 20260831140504 | 59 | 155 | 0.0 | 0.0 | 0.51 | 0.51 | 0.51 | 88 | 997.0 |
| 20260831135505 | 59 | 155 | 0.0 | 0.0 | 0.51 | 0.51 | 0.51 | 88 | 997.0 |
| 20260831135004 | 59 | 155 | 0.0 | 0.0 | 0.50 | 0.50 | 0.50 | 88 | 997.0 |
| 20260831134505 | 59 | 155 | 0.0 | 0.0 | 0.49 | 0.49 | 0.49 | 89 | 997.0 |
| 20260831134005 | 59 | 155 | 0.0 | 0.0 | 0.48 | 0.48 | 0.48 | 89 | 997.1 |
| 20260831133005 | 59 | 155 | 0.0 | 0.0 | 0.00 | 0.00 | 0.00 | 89 | 997.1 |
| 20260831132504 | 60 | 155 | 0.0 | 0.0 | 0.00 | 0.00 | 0.00 | 89 | 997.1 |
| 20260831132004 | 59 | 155 | 0.0 | 0.0 | 0.00 | 0.00 | 0.00 | 89 | 997.1 |
| 20260831131504 | 59 | 155 | 0.0 | 0.0 | 0.00 | 0.00 | 0.00 | 89 | 997.1 |
| 20260831131004 | 60 | 155 | 0.0 | 0.0 | 0.00 | 0.00 | 0.00 | 89 | 997.1 |
| 20260831130504 | 59 | 155 | 0.0 | 0.0 | 0.00 | 0.00 | 0.00 | 89 | 997.1 |
| 20260831130004 | 59 | 155 | 0.0 | 0.0 | 0.00 | 0.00 | 0.00 | 89 | 997.0 |
| 20260831125504 | 59 | 155 | 0.0 | 0.0 | 0.00 | 0.00 | 0.00 | 89 | 997.0 |
| 20260831125005 | 59 | 155 | 0.0 | 0.0 | 0.00 | 0.00 | 0.00 | 89 | 997.0 |
| 20260831124504 | 59 | 155 | 0.0 | 0.0 | 0.00 | 0.00 | 0.00 | 89 | 997.0 |
| 20260831124004 | 59 | 155 | 0.0 | 0.0 | 0.00 | 0.00 | 0.00 | 89 | 997.1 |
| 20260831123504 | 59 | 155 | 0.0 | 0.0 | 0.00 | 0.00 | 0.00 | 89 | 997.1 |
| 20260831123005 | 59 | 155 | 0.0 | 0.0 | 0.00 | 0.00 | 0.00 | 89 | 997.1 |
| 20260831122504 | 58 | 155 | 0.0 | 0.0 | 0.00 | 0.00 | 0.00 | 89 | 997.2 |
| 20260831122004 | 58 | 155 | 0.0 | 0.0 | 0.00 | 0.00 | 0.00 | 89 | 997.2 |
| 20260831121504 | 58 | 155 | 0.0 | 0.0 | 0.00 | 0.00 | 0.00 | 89 | 997.2 |
| 20260831120505 | 58 | 155 | 0.0 | 0.0 | 0.00 | 0.00 | 0.00 | 89 | 997.1 |
| 20260831115005 | 58 | 155 | 0.0 | 0.0 | 0.00 | 0.00 | 0.00 | 89 | 997.2 |
| 20260831114504 | 57 | 155 | 0.0 | 0.0 | 0.00 | 0.00 | 0.00 | 89 | 997.2 |
| 20260831114005 | 57 | 155 | 0.0 | 0.0 | 0.00 | 0.00 | 0.00 | 89 | 997.2 |
| 20260831113504 | 57 | 155 | 0.0 | 0.0 | 0.00 | 0.00 | 0.00 | 89 | 997.2 |
| 20260831113005 | 57 | 155 | 0.0 | 0.0 | 0.00 | 0.00 | 0.00 | 88 | 997.2 |
| 20260831112504 | 57 | 155 | 0.0 | 0.0 | 0.00 | 0.00 | 0.00 | 88 | 997.2 |
| 20260831112005 | 57 | 155 | 0.0 | 0.0 | 0.00 | 0.00 | 0.00 | 88 | 997.3 |
| 20260831111504 | 57 | 155 | 0.0 | 0.0 | 0.00 | 0.00 | 0.00 | 88 | 997.2 |
| 20260831111004 | 57 | 155 | 0.0 | 0.0 | 0.00 | 0.00 | 0.00 | 88 | 997.2 |
| 20260831110505 | 57 | 155 | 0.0 | 0.0 | 0.00 | 0.00 | 0.00 | 88 | 997.3 |
| 20260831110004 | 57 | 155 | 0.0 | 0.0 | 0.00 | 0.00 | 0.00 | 88 | 997.3 |
| 20260831105004 | 57 | 155 | 0.0 | 0.0 | 0.00 | 0.00 | 0.00 | 88 | 997.2 |
| 20260831104504 | 57 | 155 | 0.0 | 0.0 | 0.00 | 0.00 | 0.00 | 88 | 997.2 |
| 20260831104005 | 57 | 155 | 0.0 | 0.0 | 0.00 | 0.00 | 0.00 | 88 | 997.2 |
| 20260831103004 | 56 | 155 | 0.0 | 0.0 | 0.00 | 0.00 | 0.00 | 89 | 997.3 |
| 20260831102504 | 56 | 155 | 0.0 | 0.0 | 0.00 | 0.00 | 0.00 | 89 | 997.2 |
| 20260831102005 | 57 | 155 | 0.0 | 0.0 | 0.00 | 0.00 | 0.00 | 88 | 997.2 |
| 20260831101505 | 57 | 155 | 0.0 | 0.0 | 0.00 | 0.00 | 0.00 | 88 | 997.2 |
| 20260831101005 | 57 | 155 | 0.0 | 0.0 | 0.00 | 0.00 | 0.00 | 88 | 997.2 |
| 20260831100505 | 56 | 155 | 0.0 | 1.0 | 0.00 | 0.00 | 0.00 | 88 | 997.3 |
| 20260831100004 | 56 | 155 | 0.0 | 0.0 | 0.00 | 0.00 | 0.00 | 88 | 997.3 |
| 20260831095504 | 56 | 155 | 0.0 | 0.0 | 0.00 | 0.00 | 0.00 | 88 | 997.2 |
| 20260831095004 | 56 | 155 | 0.0 | 0.0 | 0.00 | 0.00 | 0.00 | 88 | 997.3 |
| 20260831094004 | 56 | 155 | 0.0 | 0.0 | 0.00 | 0.00 | 0.00 | 88 | 997.3 |
| 20260831093505 | 55 | 155 | 0.0 | 0.0 | 0.00 | 0.00 | 0.00 | 88 | 997.2 |
| 20260831093005 | 55 | 155 | 0.0 | 0.0 | 0.00 | 0.00 | 0.00 | 87 | 997.2 |
| 20260831092510 | 55 | 155 | 0.0 | 0.0 | 0.00 | 0.00 | 0.00 | 87 | 997.2 |
| 20260831092014 | 55 | 155 | 0.0 | 0.0 | 0.00 | 0.00 | 0.00 | 87 | 997.2 |
| 20260831091504 | 55 | 155 | 0.0 | 0.0 | 0.00 | 0.00 | 0.00 | 86 | 997.2 |
| 20260831091004 | 55 | 155 | 0.0 | 0.0 | 0.00 | 0.00 | 0.00 | 86 | 997.2 |
| 20260831090004 | 55 | 155 | 0.0 | 0.0 | 0.00 | 0.00 | 0.00 | 86 | 997.2 |
| 20260831085504 | 55 | 155 | 0.0 | 0.0 | 0.00 | 0.00 | 0.00 | 85 | 997.2 |
| 20260831085004 | 55 | 155 | 0.0 | 0.0 | 0.00 | 0.00 | 0.00 | 84 | 997.2 |
| 20260831084505 | 55 | 155 | 0.0 | 0.0 | 0.00 | 0.00 | 0.00 | 84 | 997.1 |
| 20260831084004 | 55 | 155 | 0.0 | 0.0 | 0.00 | 0.00 | 0.00 | 83 | 997.1 |
| 20260831083505 | 55 | 155 | 0.0 | 0.0 | 0.00 | 0.00 | 0.00 | 82 | 997.1 |
| 20260831083004 | 55 | 155 | 0.0 | 0.0 | 0.00 | 0.00 | 0.00 | 82 | 997.2 |
| 20260831082504 | 55 | 155 | 0.0 | 0.0 | 0.00 | 0.00 | 0.00 | 82 | 997.2 |
| 20260831081505 | 54 | 155 | 0.0 | 0.0 | 0.00 | 0.00 | 0.00 | 82 | 997.2 |
| 20260831081005 | 54 | 155 | 0.0 | 0.0 | 0.00 | 0.00 | 0.00 | 81 | 997.2 |
| 20260831080504 | 54 | 155 | 0.0 | 0.0 | 0.00 | 0.00 | 0.00 | 81 | 997.3 |
| 20260831080004 | 54 | 155 | 0.0 | 0.0 | 0.00 | 0.00 | 0.00 | 81 | 997.3 |
| 20260831075005 | 54 | 155 | 0.0 | 0.0 | 0.00 | 0.00 | 0.00 | 81 | 997.4 |
| 20260831074505 | 54 | 155 | 0.0 | 0.0 | 0.00 | 0.00 | 0.00 | 81 | 997.3 |
| 20260831073004 | 54 | 155 | 0.0 | 0.0 | 0.00 | 0.00 | 0.00 | 80 | 997.2 |
| 20260831072504 | 54 | 155 | 0.0 | 0.0 | 0.00 | 0.00 | 0.00 | 80 | 997.2 |
| 20260831072004 | 54 | 155 | 0.0 | 0.0 | 0.00 | 0.00 | 0.00 | 80 | 997.2 |
| 20260831071504 | 54 | 155 | 0.0 | 0.0 | 0.00 | 0.00 | 0.00 | 79 | 997.2 |
| 20260831070504 | 54 | 155 | 0.0 | 2.0 | 0.00 | 0.00 | 0.00 | 79 | 997.2 |
| 20260831070004 | 54 | 155 | 0.0 | 0.0 | 0.00 | 0.00 | 0.00 | 79 | 997.2 |
| 20260831065505 | 54 | 155 | 0.0 | 0.0 | 0.00 | 0.00 | 0.00 | 78 | 997.2 |
| 20260831065004 | 54 | 155 | 0.0 | 0.0 | 0.00 | 0.00 | 0.00 | 78 | 997.2 |
| 20260831064504 | 54 | 155 | 0.0 | 0.0 | 0.00 | 0.00 | 0.00 | 78 | 997.1 |
| 20260831064004 | 54 | 155 | 0.0 | 0.0 | 0.00 | 0.00 | 0.00 | 78 | 997.1 |
| 20260831063504 | 54 | 155 | 0.0 | 0.0 | 0.00 | 0.00 | 0.00 | 78 | 997.1 |
| 20260831063005 | 54 | 155 | 0.0 | 0.0 | 0.00 | 0.00 | 0.00 | 78 | 997.1 |
| 20260831062504 | 54 | 155 | 0.0 | 0.0 | 0.00 | 0.00 | 0.00 | 78 | 997.1 |
| 20260831062005 | 54 | 155 | 0.0 | 0.0 | 0.00 | 0.00 | 0.00 | 78 | 997.1 |
| 20260831061504 | 54 | 155 | 0.0 | 0.0 | 0.00 | 0.00 | 0.00 | 78 | 997.0 |
| 20260831061004 | 54 | 155 | 0.0 | 0.0 | 0.00 | 0.00 | 0.00 | 78 | 996.9 |
| 20260831060504 | 54 | 155 | 0.0 | 0.0 | 0.00 | 0.00 | 0.00 | 78 | 996.9 |
| 20260831060004 | 54 | 155 | 0.0 | 0.0 | 0.00 | 0.00 | 0.00 | 78 | 997.0 |
| 20260831055508 | 54 | 155 | 0.0 | 0.0 | 0.00 | 0.00 | 0.00 | 77 | 997.0 |
| 20260831054504 | 54 | 155 | 0.0 | 0.0 | 0.00 | 0.00 | 0.00 | 77 | 997.1 |
| 20260831054005 | 54 | 155 | 0.0 | 0.0 | 0.00 | 0.00 | 0.00 | 77 | 997.1 |
| 20260831053504 | 54 | 155 | 0.0 | 0.0 | 0.00 | 0.00 | 0.00 | 77 | 997.1 |
| 20260831053004 | 54 | 155 | 0.0 | 0.0 | 0.00 | 0.00 | 0.00 | 77 | 997.1 |
| 20260831052505 | 54 | 155 | 0.0 | 0.0 | 0.00 | 0.00 | 0.00 | 77 | 997.1 |
| 20260831052005 | 54 | 155 | 0.0 | 0.0 | 0.00 | 0.00 | 0.00 | 78 | 997.1 |
| 20260831051504 | 54 | 155 | 0.0 | 0.0 | 0.00 | 0.00 | 0.00 | 78 | 997.1 |
| 20260831051004 | 54 | 155 | 0.0 | 0.0 | 0.00 | 0.00 | 0.00 | 78 | 997.1 |
| 20260831050504 | 54 | 155 | 0.0 | 0.0 | 0.00 | 0.00 | 0.00 | 78 | 997.1 |
| 20260831050004 | 53 | 155 | 0.0 | 0.0 | 0.00 | 0.00 | 0.00 | 78 | 997.1 |
| 20260831045504 | 53 | 155 | 0.0 | 0.0 | 0.00 | 0.00 | 0.00 | 78 | 997.1 |
| 20260831045005 | 53 | 155 | 0.0 | 0.0 | 0.00 | 0.00 | 0.00 | 78 | 997.0 |
| 20260831044504 | 53 | 155 | 0.0 | 0.0 | 0.00 | 0.00 | 0.00 | 78 | 997.0 |
| 20260831044004 | 53 | 155 | 0.0 | 0.0 | 0.00 | 0.00 | 0.00 | 78 | 997.0 |
| 20260831043005 | 53 | 155 | 0.0 | 0.0 | 0.00 | 0.00 | 0.00 | 78 | 996.9 |
| 20260831042504 | 53 | 155 | 0.0 | 0.0 | 0.00 | 0.00 | 0.00 | 78 | 996.9 |
| 20260831042005 | 53 | 155 | 0.0 | 0.0 | 0.00 | 0.00 | 0.00 | 78 | 996.9 |
| 20260831041504 | 53 | 155 | 0.0 | 0.0 | 0.00 | 0.00 | 0.00 | 78 | 996.9 |
| 20260831041005 | 53 | 155 | 0.0 | 0.0 | 0.00 | 0.00 | 0.00 | 78 | 996.9 |
| 20260831040504 | 53 | 155 | 0.0 | 0.0 | 0.00 | 0.00 | 0.00 | 78 | 996.9 |
| 20260831040004 | 53 | 155 | 0.0 | 0.0 | 0.00 | 0.00 | 0.00 | 78 | 996.9 |
| 20260831035505 | 53 | 155 | 0.0 | 0.0 | 0.00 | 0.00 | 0.00 | 78 | 997.0 |
| 20260831034504 | 53 | 155 | 0.0 | 0.0 | 0.00 | 0.00 | 0.00 | 78 | 996.9 |
| 20260831034004 | 53 | 155 | 0.0 | 0.0 | 0.00 | 0.00 | 0.00 | 78 | 996.9 |
| 20260831033504 | 53 | 155 | 0.0 | 0.0 | 0.00 | 0.00 | 0.00 | 78 | 996.9 |
| 20260831033005 | 53 | 155 | 0.0 | 0.0 | 0.00 | 0.00 | 0.00 | 78 | 996.9 |
| 20260831031004 | 53 | 155 | 0.0 | 0.0 | 0.00 | 0.00 | 0.00 | 79 | 996.8 |
| 20260831030505 | 53 | 155 | 0.0 | 0.0 | 0.00 | 0.00 | 0.00 | 79 | 996.8 |
| 20260831030004 | 53 | 155 | 0.0 | 0.0 | 0.00 | 0.00 | 0.00 | 79 | 996.7 |
| 20260831025004 | 53 | 155 | 0.0 | 0.0 | 0.00 | 0.00 | 0.00 | 78 | 996.7 |
| 20260831024504 | 53 | 155 | 0.0 | 0.0 | 0.00 | 0.00 | 0.00 | 78 | 996.7 |
| 20260831024005 | 53 | 155 | 0.0 | 0.0 | 0.00 | 0.00 | 0.00 | 78 | 996.7 |
| 20260831023504 | 54 | 155 | 0.0 | 0.0 | 0.00 | 0.00 | 0.00 | 78 | 996.8 |
| 20260831023005 | 54 | 155 | 0.0 | 0.0 | 0.00 | 0.00 | 0.00 | 78 | 996.8 |
| 20260831022004 | 54 | 155 | 0.0 | 0.0 | 0.00 | 0.00 | 0.00 | 78 | 996.8 |
| 20260831021504 | 54 | 155 | 0.0 | 0.0 | 0.00 | 0.00 | 0.00 | 78 | 996.8 |
| 20260831021004 | 54 | 155 | 0.0 | 0.0 | 0.00 | 0.00 | 0.00 | 78 | 996.8 |
| 20260831020505 | 54 | 155 | 0.0 | 0.0 | 0.00 | 0.00 | 0.00 | 78 | 996.9 |
| 20260831020004 | 54 | 155 | 0.0 | 0.0 | 0.00 | 0.00 | 0.00 | 78 | 996.9 |
| 20260831015505 | 54 | 155 | 0.0 | 0.0 | 0.00 | 0.00 | 0.00 | 78 | 996.9 |
| 20260831015005 | 54 | 155 | 0.0 | 0.0 | 0.00 | 0.00 | 0.00 | 78 | 996.9 |